DW6193 Weather Reports


Display with metric or nautical units.
time (UTC)temp
F
wind
direction
speed
MPH
gust
MPH
rain 1hr
in
rain 24hr
in
rain mn
in
humidity
%
barometer
mb
20260906195030 58 210 0.0 2.0 0.00 0.00 0.00 1018.0
20260906194602 58 255 0.0 5.0 0.00 0.00 0.00 1017.8
20260906194028 57 0 1.0 5.0 0.00 0.00 0.00 1018.0
20260906193525 56 227 2.0 5.0 0.00 0.00 0.00 1017.9
20260906193043 58 0 0.0 2.0 0.00 0.00 0.00 1018.0
20260906192528 58 124 0.0 2.0 0.00 0.00 0.00 1018.0
20260906192029 58 124 0.0 2.0 0.00 0.00 0.00 1018.0
20260906191554 57 141 0.0 4.0 0.00 0.00 0.00 1018.0
20260906191025 56 205 1.0 4.0 0.00 0.00 0.00 1018.0
20260906190527 56 213 1.0 4.0 0.00 0.00 0.00 1018.0
20260906190052 56 227 1.0 4.0 0.00 0.00 0.00 1018.1
20260906185525 56 240 1.0 4.0 0.00 0.00 0.00 1018.0
20260906185025 55 230 0.0 4.0 0.00 0.00 0.00 1018.0
20260906184549 55 216 2.0 4.0 0.00 0.00 0.00 1017.9
20260906184027 55 255 1.0 3.0 0.00 0.00 0.00 1017.8
20260906183525 56 252 0.0 4.0 0.00 0.00 0.00 1017.9
20260906183058 55 268 1.0 4.0 0.00 0.00 0.00 1018.0
20260906182525 55 243 1.0 4.0 0.00 0.00 0.00 1018.0
20260906182026 55 243 1.0 5.0 0.00 0.00 0.00 1018.1
20260906181548 55 261 2.0 5.0 0.00 0.00 0.00 1018.1
20260906181024 55 268 1.0 3.0 0.00 0.00 0.00 1018.0
20260906180528 55 261 1.0 4.0 0.00 0.00 0.00 1018.0
20260906175530 54 278 2.0 3.0 0.00 0.00 0.00 1017.9
20260906175026 54 277 1.0 3.0 0.00 0.00 0.00 1017.8
20260906174609 54 248 1.0 3.0 0.00 0.00 0.00 1017.9
20260906174029 54 268 1.0 4.0 0.00 0.00 0.00 1017.8
20260906173526 54 280 1.0 4.0 0.00 0.00 0.00 1017.9
20260906173048 54 276 2.0 4.0 0.00 0.00 0.00 1017.8
20260906172530 54 278 2.0 5.0 0.00 0.00 0.00 1017.8
20260906172028 54 286 3.0 5.0 0.00 0.00 0.00 1017.8
20260906171801 54 283 1.0 4.0 0.00 0.00 0.00 1017.7
20260906171027 54 261 2.0 4.0 0.00 0.00 0.00 1017.7
20260906170525 55 268 1.0 3.0 0.00 0.00 0.00 1017.8
20260906170057 55 0 0.0 4.0 0.00 0.00 0.00 1017.8
20260906165526 55 141 1.0 4.0 0.00 0.00 0.00 1017.6
20260906165029 55 268 1.0 2.0 0.00 0.00 0.00 1017.6
20260906164554 55 141 1.0 2.0 0.00 0.00 0.00 1017.7
20260906164027 55 268 0.0 2.0 0.00 0.00 0.00 1017.6
20260906163525 55 0 0.0 2.0 0.00 0.00 0.00 1017.6
20260906163049 55 216 0.0 2.0 0.00 0.00 0.00 1017.5
20260906162529 55 0 0.0 2.0 0.00 0.00 0.00 1017.6
20260906162025 54 295 0.0 2.0 0.00 0.00 0.00 1017.6
20260906161611 54 268 1.0 2.0 0.00 0.00 0.00 1017.6
20260906161027 54 243 1.0 2.0 0.00 0.00 0.00 1017.6
20260906160525 54 201 1.0 2.0 0.00 0.00 0.00 1017.6
20260906160051 53 243 1.0 2.0 0.00 0.00 0.00 1017.6
20260906155528 54 254 1.0 3.0 0.00 0.00 0.00 1017.5
20260906155027 53 252 1.0 3.0 0.00 0.00 0.00 1017.5
20260906154549 53 227 1.0 3.0 0.00 0.00 0.00 1017.5
20260906154032 54 248 1.0 4.0 0.00 0.00 0.00 1017.6
20260906153525 53 283 1.0 4.0 0.00 0.00 0.00 1017.3
20260906153105 54 232 0.0 2.0 0.00 0.00 0.00 1017.4
20260906152526 53 243 1.0 3.0 0.00 0.00 0.00 1017.5
20260906152028 53 252 1.0 3.0 0.00 0.00 0.00 1017.5
20260906151544 54 236 0.0 4.0 0.00 0.00 0.00 1017.5
20260906151028 54 268 1.0 5.0 0.00 0.00 0.00 1017.4
20260906150528 53 255 1.0 6.0 0.00 0.00 0.00 1017.2
20260906150051 53 282 3.0 6.0 0.00 0.00 0.00 1017.3
20260906145525 53 268 3.0 5.0 0.00 0.00 0.00 1017.3
20260906145025 53 264 3.0 5.0 0.00 0.00 0.00 1017.2
20260906144550 53 290 3.0 5.0 0.00 0.00 0.00 1017.2
20260906144027 53 265 3.0 6.0 0.00 0.00 0.00 1017.0
20260906143529 53 268 3.0 6.0 0.00 0.00 0.00 1017.0
20260906143045 53 285 3.0 6.0 0.00 0.00 0.00 1016.9
20260906142527 53 265 3.0 7.0 0.00 0.00 0.00 1016.7
20260906142025 53 234 4.0 7.0 0.00 0.00 0.00 1016.8
20260906141558 53 288 4.0 7.0 0.00 0.00 0.00 1016.6
20260906141028 53 268 3.0 6.0 0.00 0.00 0.00 1016.7
20260906140528 54 232 1.0 5.0 0.00 0.00 0.00 1016.7
20260906140053 53 248 1.0 5.0 0.00 0.00 0.00 1016.6
20260906135528 53 250 2.0 5.0 0.00 0.00 0.00 1016.5
20260906135027 54 268 2.0 4.0 0.00 0.00 0.00 1016.5
20260906134550 54 247 1.0 4.0 0.00 0.00 0.00 1016.6
20260906134028 54 0 0.0 2.0 0.00 0.00 0.00 1016.6
20260906133525 54 162 1.0 3.0 0.00 0.00 0.00 1016.5
20260906133051 54 255 1.0 3.0 0.00 0.00 0.00 1016.5
20260906132526 54 138 1.0 3.0 0.00 0.00 0.00 1016.7
20260906132027 54 158 1.0 3.0 0.00 0.00 0.00 1016.6
20260906131559 54 136 1.0 3.0 0.00 0.00 0.00 1016.5
20260906131025 55 0 1.0 5.0 0.00 0.00 0.00 1016.5
20260906130525 55 183 1.0 5.0 0.00 0.00 0.00 1016.4
20260906130054 55 128 2.0 5.0 0.00 0.00 0.00 1016.5
20260906125528 55 0 0.0 3.0 0.00 0.00 0.00 1016.2
20260906125027 55 227 0.0 8.0 0.00 0.00 0.00 1016.2
20260906124551 55 252 1.0 8.0 0.00 0.00 0.00 1016.2
20260906124027 55 291 3.0 7.0 0.00 0.00 0.00 1016.2
20260906123524 55 299 0.0 4.0 0.00 0.00 0.00 1016.4
20260906123052 55 0 1.0 5.0 0.00 0.00 0.00 1016.4
20260906122528 56 118 1.0 9.0 0.00 0.00 0.00 1016.3
20260906122025 56 120 3.0 10.0 0.00 0.00 0.00 1016.3
20260906121544 56 64 4.0 10.0 0.00 0.00 0.00 1016.5
20260906121029 56 101 6.0 10.0 0.00 0.00 0.00 1016.4
20260906120527 56 111 7.0 13.0 0.00 0.00 0.00 1016.4
20260906120051 56 101 6.0 14.0 0.00 0.00 0.00 1016.4
20260906115527 56 101 11.0 15.0 0.00 0.00 0.00 1016.4
20260906115025 56 116 12.0 15.0 0.00 0.00 0.00 1016.4
20260906114552 56 121 12.0 15.0 0.00 0.00 0.00 1016.3
20260906114027 56 109 11.0 16.0 0.00 0.00 0.00 1016.2
20260906113527 56 129 9.0 16.0 0.00 0.00 0.00 1016.2
20260906113047 56 111 11.0 16.0 0.00 0.00 0.00 1016.2
20260906112528 56 115 8.0 14.0 0.00 0.00 0.00 1016.4
20260906112025 56 118 6.0 13.0 0.00 0.00 0.00 1016.3
20260906111547 56 74 5.0 16.0 0.00 0.00 0.00 1016.4
20260906111027 56 110 8.0 18.0 0.00 0.00 0.00 1016.4
20260906110527 56 112 8.0 18.0 0.00 0.00 0.00 1016.5
20260906110049 56 101 9.0 18.0 0.00 0.00 0.00 1016.5
20260906105528 56 122 9.0 15.0 0.00 0.00 0.00 1016.3
20260906105028 56 105 8.0 21.0 0.00 0.00 0.00 1016.4
20260906104550 56 115 9.0 21.0 0.00 0.00 0.00 1016.3
20260906104028 56 115 11.0 19.0 0.00 0.00 0.00 1016.4
20260906103525 57 113 11.0 19.0 0.00 0.00 0.00 1016.2
20260906103048 57 120 12.0 18.0 0.00 0.00 0.00 1016.2
20260906102528 57 105 14.0 18.0 0.00 0.00 0.00 1016.2
20260906102027 57 114 15.0 18.0 0.00 0.00 0.00 1016.2
20260906101544 57 124 13.0 20.0 0.00 0.00 0.00 1016.1
20260906101025 57 117 15.0 21.0 0.00 0.00 0.00 1016.1
20260906100533 57 122 16.0 21.0 0.00 0.00 0.00 1016.3
20260906100051 57 109 14.0 21.0 0.00 0.00 0.00 1016.1
20260906095532 57 115 15.0 21.0 0.00 0.00 0.00 1016.1
20260906095027 57 109 16.0 21.0 0.00 0.00 0.00 1016.1
20260906094558 57 113 16.0 19.0 0.00 0.00 0.00 1016.3
20260906094028 57 113 16.0 19.0 0.00 0.00 0.00 1016.3
20260906093529 58 123 15.0 18.0 0.00 0.00 0.00 1016.3
20260906093048 58 114 14.0 20.0 0.00 0.00 0.00 1016.4
20260906092531 58 106 15.0 20.0 0.00 0.00 0.00 1016.4
20260906092028 58 110 13.0 19.0 0.00 0.00 0.00 1016.3
20260906091551 58 114 15.0 19.0 0.00 0.00 0.00 1016.2
20260906091027 58 122 13.0 16.0 0.00 0.00 0.00 1016.2
20260906090525 58 118 13.0 15.0 0.00 0.00 0.00 1016.3
20260906090054 58 109 10.0 14.0 0.00 0.00 0.00 1016.2
20260906085528 58 122 10.0 14.0 0.00 0.00 0.00 1016.3
20260906085025 58 112 9.0 14.0 0.00 0.00 0.00 1016.4
20260906084545 58 109 7.0 12.0 0.00 0.00 0.00 1016.4
20260906084035 58 151 6.0 11.0 0.00 0.00 0.00 1016.5
20260906083527 58 118 5.0 9.0 0.00 0.00 0.00 1016.5
20260906083053 58 115 5.0 13.0 0.00 0.00 0.00 1016.6
20260906082528 58 114 5.0 14.0 0.00 0.00 0.00 1016.5
20260906082025 58 105 9.0 15.0 0.00 0.00 0.00 1016.4
20260906081549 58 114 10.0 16.0 0.00 0.00 0.00 1016.3
20260906081027 58 109 10.0 16.0 0.00 0.00 0.00 1016.2
20260906080529 58 101 11.0 16.0 0.00 0.00 0.00 1016.2
20260906080049 58 117 11.0 17.0 0.00 0.00 0.00 1016.3
20260906075525 58 76 12.0 17.0 0.00 0.00 0.00 1016.2
20260906075028 58 116 7.0 15.0 0.00 0.00 0.00 1016.1
20260906074546 58 113 10.0 15.0 0.00 0.00 0.00 1016.2
20260906074027 58 111 5.0 11.0 0.00 0.00 0.00 1016.2
20260906073528 58 114 3.0 8.0 0.00 0.00 0.00 1016.4
20260906073052 58 131 2.0 11.0 0.00 0.00 0.00 1016.5
20260906072531 58 311 5.0 13.0 0.00 0.00 0.00 1016.3
20260906072027 58 123 7.0 13.0 0.00 0.00 0.00 1016.3
20260906071548 58 117 10.0 14.0 0.00 0.00 0.00 1016.4
20260906071025 58 74 9.0 14.0 0.00 0.00 0.00 1016.3
20260906070528 58 121 11.0 17.0 0.00 0.00 0.00 1016.3
20260906070045 59 119 8.0 17.0 0.00 0.00 0.00 1016.2
20260906065525 58 107 9.0 19.0 0.00 0.00 0.00 1016.3
20260906065025 58 103 12.0 19.0 0.00 0.00 0.00 1016.2
20260906064549 59 118 11.0 18.0 0.00 0.00 0.00 1016.3
20260906064023 59 101 10.0 18.0 0.00 0.00 0.00 1016.2
20260906063523 59 118 12.0 18.0 0.00 0.00 0.00 1016.3
20260906063050 59 107 10.0 16.0 0.00 0.00 0.00 1016.2
20260906062528 59 108 11.0 17.0 0.00 0.00 0.00 1016.5
20260906062024 59 112 11.0 17.0 0.00 0.00 0.00 1016.5
20260906061550 59 112 9.0 16.0 0.00 0.00 0.00 1016.4
20260906061025 59 106 9.0 16.0 0.00 0.00 0.00 1016.4
20260906060524 59 117 11.0 16.0 0.00 0.00 0.00 1016.6
20260906060054 59 113 12.0 15.0 0.00 0.00 0.00 1016.5
20260906055523 59 110 11.0 17.0 0.00 0.00 0.00 1016.4
20260906055024 59 108 13.0 17.0 0.00 0.00 0.00 1016.5
20260906054558 59 113 14.0 17.0 0.00 0.00 0.00 1016.6
20260906054025 59 113 13.0 16.0 0.00 0.00 0.00 1016.5
20260906053525 59 109 12.0 17.0 0.00 0.00 0.00 1016.4
20260906053048 59 107 11.0 17.0 0.00 0.00 0.00 1016.3
20260906052524 60 109 12.0 16.0 0.00 0.00 0.00 1016.4
20260906052025 60 116 12.0 16.0 0.00 0.00 0.00 1016.7
20260906051546 60 116 8.0 15.0 0.00 0.00 0.00 1016.7
20260906051025 60 51 7.0 14.0 0.00 0.00 0.00 1016.7
20260906050527 61 90 6.0 13.0 0.00 0.00 0.00 1016.6
20260906050055 60 59 7.0 15.0 0.00 0.00 0.00 1016.8
20260906045525 60 111 10.0 15.0 0.00 0.00 0.00 1016.9
20260906045024 60 118 11.0 15.0 0.00 0.00 0.00 1016.9
20260906044550 60 78 11.0 15.0 0.00 0.00 0.00 1017.0
20260906044029 60 113 8.0 14.0 0.00 0.00 0.00 1017.0
20260906043529 61 121 10.0 14.0 0.00 0.00 0.00 1017.0
20260906043055 61 67 8.0 15.0 0.00 0.00 0.00 1017.1
20260906042525 61 113 12.0 15.0 0.00 0.00 0.00 1017.1
20260906042025 61 109 10.0 14.0 0.00 0.00 0.00 1017.1
20260906041605 61 111 10.0 14.0 0.00 0.00 0.00 1017.1
20260906041026 61 111 12.0 14.0 0.00 0.00 0.00 1017.0
20260906040527 62 119 9.0 13.0 0.00 0.00 0.00 1017.1
20260906040051 62 121 10.0 13.0 0.00 0.00 0.00 1017.0
20260906035526 61 109 4.0 9.0 0.00 0.00 0.00 1017.0
20260906035025 61 145 2.0 8.0 0.00 0.00 0.00 1016.9
20260906034558 62 129 4.0 8.0 0.00 0.00 0.00 1017.0
20260906034024 62 120 5.0 8.0 0.00 0.00 0.00 1016.9
20260906033524 62 117 3.0 6.0 0.00 0.00 0.00 1016.8
20260906033045 62 113 3.0 5.0 0.00 0.00 0.00 1016.7
20260906032527 61 118 3.0 5.0 0.00 0.00 0.00 1016.7
20260906032028 62 161 1.0 5.0 0.00 0.00 0.00 1016.6
20260906031553 62 110 2.0 5.0 0.00 0.00 0.00 1016.6
20260906031027 62 151 3.0 6.0 0.00 0.00 0.00 1016.5
20260906030527 62 128 3.0 6.0 0.00 0.00 0.00 1016.5
20260906030052 62 128 4.0 9.0 0.00 0.00 0.00 1016.4
20260906025528 63 131 4.0 11.0 0.00 0.00 0.00 1016.4
20260906025027 63 111 7.0 11.0 0.00 0.00 0.00 1016.3
20260906024547 64 112 9.0 11.0 0.00 0.00 0.00 1016.3
20260906024027 63 106 6.0 10.0 0.00 0.00 0.00 1016.4
20260906023528 63 116 4.0 8.0 0.00 0.00 0.00 1016.5
20260906023046 62 141 3.0 6.0 0.00 0.00 0.00 1016.4
20260906022528 62 173 3.0 6.0 0.00 0.00 0.00 1016.5
20260906022028 62 155 2.0 5.0 0.00 0.00 0.00 1016.5
20260906021600 63 176 2.0 8.0 0.00 0.00 0.00 1016.5
20260906021028 64 153 2.0 11.0 0.00 0.00 0.00 1016.6
20260906020527 66 128 5.0 11.0 0.00 0.00 0.00 1016.6
20260906020051 67 113 6.0 11.0 0.00 0.00 0.00 1016.8
20260906015527 68 69 6.0 11.0 0.00 0.00 0.00 1016.7
20260906015027 69 103 4.0 12.0 0.00 0.00 0.00 1016.7
20260906014549 72 105 7.0 15.0 0.00 0.00 0.00 1016.8
20260906014033 73 103 11.0 15.0 0.00 0.00 0.00 1016.8
20260906013528 74 322 7.0 14.0 0.00 0.00 0.00 1016.7
20260906013049 74 105 11.0 14.0 0.00 0.00 0.00 1017.0
20260906012529 74 112 11.0 14.0 0.00 0.00 0.00 1016.8
20260906012026 75 153 7.0 13.0 0.00 0.00 0.00 1016.8
20260906011549 76 111 9.0 14.0 0.00 0.00 0.00 1016.7
20260906011036 77 115 12.0 14.0 0.00 0.00 0.00 1016.9
20260906010528 79 119 10.0 13.0 0.00 0.00 0.00 1016.8
20260906010059 79 122 11.0 13.0 0.00 0.00 0.00 1016.8
20260906005528 79 116 8.0 12.0 0.00 0.00 0.00 1016.9
20260906005031 79 105 7.0 14.0 0.00 0.00 0.00 1016.8
20260906004611 78 107 8.0 14.0 0.00 0.00 0.00 1016.8
20260906004029 80 122 9.0 12.0 0.00 0.00 0.00 1016.8
20260906003528 83 106 6.0 12.0 0.00 0.00 0.00 1016.9
20260906003050 82 124 7.0 12.0 0.00 0.00 0.00 1016.8
20260906002528 81 111 7.0 15.0 0.00 0.00 0.00 1016.8
20260906002028 80 51 7.0 16.0 0.00 0.00 0.00 1016.9
20260906001559 79 117 12.0 16.0 0.00 0.00 0.00 1017.0
20260906001028 79 113 13.0 16.0 0.00 0.00 0.00 1016.9
20260906000527 78 111 11.0 16.0 0.00 0.00 0.00 1017.0
20260906000044 79 100 10.0 16.0 0.00 0.00 0.00 1016.8
20260905235528 81 74 7.0 12.0 0.00 0.00 0.00 1017.0
20260905235028 80 51 5.0 11.0 0.00 0.00 0.00 1016.9
20260905234552 80 145 3.0 14.0 0.00 0.00 0.00 1016.8
20260905234027 74 80 6.0 14.0 0.00 0.00 0.00 1017.0
20260905233528 77 166 0.0 4.0 0.00 0.00 0.00 1016.9
20260905233044 79 72 2.0 4.0 0.00 0.00 0.00 1017.0
20260905232530 79 112 0.0 4.0 0.00 0.00 0.00 1017.0
20260905232026 83 355 1.0 4.0 0.00 0.00 0.00 1016.9
20260905231544 87 355 0.0 3.0 0.00 0.00 0.00 1017.0
20260905231028 82 134 1.0 3.0 0.00 0.00 0.00 1017.0
20260905230524 82 329 0.0 3.0 0.00 0.00 0.00 1017.1
20260905230052 82 201 0.0 2.0 0.00 0.00 0.00 1017.1
20260905225530 85 0 0.0 3.0 0.00 0.00 0.00 1017.1
20260905225027 84 158 0.0 3.0 0.00 0.00 0.00 1017.1
20260905224547 82 0 0.0 2.0 0.00 0.00 0.00 1017.1
20260905224025 79 268 0.0 2.0 0.00 0.00 0.00 1017.2
20260905223524 79 243 1.0 2.0 0.00 0.00 0.00 1017.2
20260905223050 78 268 1.0 4.0 0.00 0.00 0.00 1017.2
20260905222524 74 0 1.0 4.0 0.00 0.00 0.00 1017.2
20260905222026 77 285 1.0 4.0 0.00 0.00 0.00 1017.1
20260905221547 82 281 1.0 4.0 0.00 0.00 0.00 1017.1
20260905221025 83 243 0.0 5.0 0.00 0.00 0.00 1017.2
20260905220524 77 286 1.0 5.0 0.00 0.00 0.00 1017.1
20260905220045 74 286 2.0 5.0 0.00 0.00 0.00 1017.2
20260905215524 76 261 1.0 3.0 0.00 0.00 0.00 1017.2
20260905215023 76 71 1.0 3.0 0.00 0.00 0.00 1017.2
20260905214550 77 243 1.0 3.0 0.00 0.00 0.00 1017.3
20260905214023 76 219 0.0 5.0 0.00 0.00 0.00 1017.4
20260905213528 76 311 0.0 5.0 0.00 0.00 0.00 1017.2
20260905213048 77 141 2.0 5.0 0.00 0.00 0.00 1017.2
20260905212526 83 154 0.0 3.0 0.00 0.00 0.00 1017.4
20260905212025 81 39 1.0 4.0 0.00 0.00 0.00 1017.3
20260905211547 86 236 1.0 4.0 0.00 0.00 0.00 1017.4
20260905211026 86 295 1.0 4.0 0.00 0.00 0.00 1017.3
20260905210526 89 99 1.0 3.0 0.00 0.00 0.00 1017.3
20260905210110 88 216 1.0 3.0 0.00 0.00 0.00 1017.4
20260905205523 87 311 1.0 3.0 0.00 0.00 0.00 1017.5
20260905205024 86 0 1.0 4.0 0.00 0.00 0.00 1017.6
20260905204547 85 302 1.0 4.0 0.00 0.00 0.00 1017.6
20260905204026 86 39 1.0 8.0 0.00 0.00 0.00 1017.6
20260905203529 85 268 2.0 8.0 0.00 0.00 0.00 1017.6
20260905203046 85 283 1.0 8.0 0.00 0.00 0.00 1017.6
20260905202525 85 151 3.0 8.0 0.00 0.00 0.00 1017.6
20260905202025 86 141 1.0 4.0 0.00 0.00 0.00 1017.6
20260905201544 84 3 1.0 4.0 0.00 0.00 0.00 1017.5
20260905201023 83 39 1.0 4.0 0.00 0.00 0.00 1017.6
20260905200523 85 99 1.0 4.0 0.00 0.00 0.00 1017.6
20260905200109 83 55 1.0 8.0 0.00 0.00 0.00 1017.7
20260905195523 80 311 2.0 8.0 0.00 0.00 0.00 1017.7